スキッフ彗星

305P/Skiff (2024)

English version
Home page
Updated on January 10, 2025

---------------------------------------------------------------------

・ プロフィール

・ 写真集

・ 軌道要素

Epoch 2024 Oct. 17.0 TT = JDT 2460600.5
T 2024 Nov. 17.15324 TT                                 Rudenko
q   1.4186699            (2000.0)            P               Q
n   0.09875467     Peri.  147.41798     +0.87716000     -0.44702339
a   4.6355111      Node   240.10653     +0.38575146     +0.87347513
e   0.6939561      Incl.   11.67161     +0.28598278     +0.19290227
P   9.98
From 756 observations 2004 Oct. 7-2024 Oct. 10, mean residual 1".1.

・ 星図

・ 光度変化

        m1 = 14.5 + 5 logΔ + 15.0 log r(t - 60)

---------------------------------------------------------------------

軌道要素はM.P.E.C. 2024-T253に掲載されたものです。
星図はステラナビゲータ Ver.11 (アストロアーツ) で作成したものです。
光度グラフはComet for Windowsで作成したものです。

---------------------------------------------------------------------

Copyright(C) Seiichi Yoshida (comet@aerith.net). All rights reserved.